Location: Unspecified
(41.1850°N, 73.2650°W)
Time: 02:51:30
(UTC+00:00)

SL-08 R/B - Pass Details

Date: 15 March 2026
Orbit: 946 x 992 km, 83.0° (Epoch: 13 April)

Event Time Altitude Azimuth Distance (km) Brightness Sun altitude
Exits shadow 00:41:38 19° 54° (NE) 2,119 5.9 -20.0°
Drops below altitude 10° 00:43:57 10° 35° (NE) 2,674 6.6 -20.4°
Sets 00:46:56 0° 21° (NNE) 3,623 7.4 -20.9°
